OBJECT J, 57174

Orbit data source: Space-Track

You're viewing an Uncataloged Satellite

Recently launched and/or uncataloged satellites may have evolving metadata. Metadata may include but not limited to: Owner, Maufacturer, Bus, Motor, and Mission.

OBJECT J, 57174 is a satellite in SSO that was launched on Tue, 27 Jun 2023 UTC via a SOYUZ-2-1B launch vehicle from the Vostochny Cosmodrome (VOSTO). Unknown objects in Earth's orbit typically refer to objects detected orbiting the Earth but have not yet been identified or cataloged. These objects could be anything from previously untracked satellites, spent rocket stages, debris from satellite collisions, or even natural meteoroids temporarily captured by Earth's gravity.

Loading next visibility...
Identifier
57174, 2023-091J
Orbit
SSO
Country
Flag of TBDTBD
Related business
None
Manufacturer
Unknown
Mission
Operational Amateur Technology
Bus & Motor
Unknown
Mass
Unknown
Launch date (UTC)
2023-06-27 (3 years ago)
Launch vehicle
SOYUZ-2-1B
Launch site
Vostochny Cosmodrome (VOSTO)
Object type
Unknown
Shape & HBR
Box, 0.2 m
Radar Cross Section
0.080 m², Medium (>0.1 m² and < 1m²)

Expand to show TLE details & history
Last TLE update: 22 hours ago

TLE from 22 hours ago
0 OBJECT J
1 57174U 23091J   26207.57777758  .00003707  00000-0  20638-3 0  9998
2 57174  97.5035 260.1131 0013418  19.3343 340.8395 15.14180091169591
Epoch: 2026-07-26T13:51Z
TLE epoch observation values (Epoch: 2026-07-26T13:51:59.982Z)
Latitude
-0.00005°
Longitude
107.83948°
Altitude
517.8 km
Speed
7.609 km/s
True Right ascension
17h 20m 27s
True Declination
0° 00' 00"
Sunlit
Object was in full shadow at epoch
Visualization orbit readout
Latitude
Unknown
Longitude
Unknown
Altitude
Unknown
Speed
Unknown
Apparent Right ascension
Unknown
Apparent Declination
Unknown
Sunlit
N/A
Visualization observer readout
Local Sidereal Time
00:53:30
Azimuth
Unknown
Elevation
Unknown
Doppler factor
Unknown
Orbital elements
Apogee altitude
529.703 km
Perigee altitude
511.19 km
Semi-major axis
6,898.584 km
Eccentricity
0.00134
Inclination
97.5035°
RAAN
260.1131°
Arg. of periapsis
19.3343°
True anomaly
340.78895°
Mean anomaly
340.8395°
Eccentric anomaly
340.81423°
Mean motion
3.78794 °/min
Orbital period
95.04 mins
BSTAR
0.00020638
Loading maneuver chart data...
Computing Atmospheric mass density...
Loading historical data...
Loading historical data...
Loading historical data...
Loading historical data...
Loading historical data...
Loading historical data...
Loading historical data...

Documentation

Showing up to 5 results
|